TimeCDT,TemperatureF,Dew PointF,Humidity,Sea Level PressureIn,VisibilityMPH,Wind Direction,Wind SpeedMPH,Gust SpeedMPH,PrecipitationIn,Events,Conditions,WindDirDegrees,DateUTC
12:53 AM,52.0,43.0,71,29.91,10.0,ESE,3.5,-,N/A,,Clear,110,2013-09-22 05:53:00
1:53 AM,50.0,43.0,77,29.91,10.0,ESE,3.5,-,N/A,,Clear,110,2013-09-22 06:53:00
2:53 AM,48.9,43.0,80,29.90,10.0,East,6.9,-,N/A,,Clear,100,2013-09-22 07:53:00
3:53 AM,50.0,43.0,77,29.89,10.0,Calm,Calm,-,N/A,,Clear,0,2013-09-22 08:53:00
4:53 AM,50.0,44.1,80,29.88,10.0,East,6.9,-,N/A,,Clear,100,2013-09-22 09:53:00
5:53 AM,50.0,44.1,80,29.88,10.0,ESE,6.9,-,N/A,,Clear,110,2013-09-22 10:53:00
6:53 AM,50.0,45.0,83,29.89,10.0,SE,6.9,-,N/A,,Clear,130,2013-09-22 11:53:00
7:53 AM,52.0,46.0,80,29.90,10.0,SE,9.2,-,N/A,,Clear,140,2013-09-22 12:53:00
8:53 AM,57.9,48.0,70,29.90,10.0,SSE,9.2,-,N/A,,Clear,150,2013-09-22 13:53:00
9:53 AM,64.0,50.0,60,29.90,10.0,SSE,13.8,-,N/A,,Clear,160,2013-09-22 14:53:00
10:53 AM,69.1,51.1,53,29.90,10.0,South,12.7,-,N/A,,Clear,180,2013-09-22 15:53:00
11:53 AM,75.0,52.0,44,29.88,10.0,South,13.8,23.0,N/A,,Clear,180,2013-09-22 16:53:00
12:53 PM,80.1,51.1,36,29.85,10.0,South,18.4,24.2,N/A,,Clear,190,2013-09-22 17:53:00
1:53 PM,82.0,48.0,30,29.83,10.0,South,17.3,29.9,N/A,,Clear,180,2013-09-22 18:53:00
2:53 PM,82.9,48.0,29,29.81,10.0,South,21.9,29.9,N/A,,Clear,190,2013-09-22 19:53:00
3:53 PM,82.9,48.0,29,29.80,10.0,South,18.4,31.1,N/A,,Clear,190,2013-09-22 20:53:00
4:53 PM,81.0,48.0,31,29.79,10.0,South,20.7,27.6,N/A,,Partly Cloudy,190,2013-09-22 21:53:00
5:53 PM,80.1,46.9,31,29.80,10.0,South,19.6,27.6,N/A,,Clear,180,2013-09-22 22:53:00
6:53 PM,75.9,48.0,37,29.81,10.0,South,13.8,-,N/A,,Clear,170,2013-09-22 23:53:00
7:53 PM,69.1,50.0,51,29.83,10.0,South,10.4,-,N/A,,Clear,170,2013-09-23 00:53:00
8:53 PM,66.9,50.0,54,29.83,10.0,SSE,9.2,-,N/A,,Clear,150,2013-09-23 01:53:00
9:53 PM,64.0,51.1,63,29.84,10.0,SE,12.7,-,N/A,,Clear,140,2013-09-23 02:53:00
10:53 PM,62.1,52.0,70,29.85,10.0,SSE,10.4,-,N/A,,Clear,150,2013-09-23 03:53:00
11:53 PM,61.0,52.0,72,29.85,10.0,SE,9.2,-,N/A,,Clear,140,2013-09-23 04:53:00